Location: Newark
(39.1833°N, 3.3000°W)
Time: 11:56:02
(UTC+00:00)

Tiangong 2 - Pass Details

Date: 29 March 2019
Orbit: 378 x 390 km, 42.8° (Epoch: 24 April)

Event Time Altitude Azimuth Distance (km) Brightness Sun altitude
Rises 19:06:34 0° 197° (SSW) 2,230 5.0 -7.1°
Reaches altitude 10° 19:09:50 10° 160° (SSE) 1,381 3.6 -7.8°
Maximum altitude 19:10:48 11° 142° (SE) 1,318 3.3 -7.9°
Drops below altitude 10° 19:11:47 10° 123° (ESE) 1,382 3.3 -8.1°
Enters shadow 19:11:52 10° 122° (ESE) 1,394 3.3 -8.1°
